This is the latest recevied weather packets stored in our database for station/object NZ3C. If no packets are shown the sender has not sent any weather packets the latest 10 day(s).
| Time | Temp. | Humidity | Pressure | Rain* | Wind** | Luminosity | Snow |
|---|---|---|---|---|---|---|---|
| 1777738759 | 11.67° C | 94% | 1014.9 hPa | 3.56 mm | - | 90 W/m² | - |
| 1777738455 | 11.67° C | 94% | 1014.9 hPa | 3.05 mm | - | 87 W/m² | - |
| 1777738153 | 11.67° C | 94% | 1014.7 hPa | 4.32 mm | - | 98 W/m² | - |
| 1777737851 | 12.22° C | 94% | 1014.5 hPa | 6.1 mm | - | 161 W/m² | - |
| 1777737550 | 12.22° C | 94% | 1014.6 hPa | 4.83 mm | - | 109 W/m² | - |
| 1777737248 | 12.22° C | 94% | 1014.6 hPa | 3.05 mm | - | 86 W/m² | - |
| 1777736942 | 12.78° C | 94% | 1014.5 hPa | 3.05 mm | - | 105 W/m² | - |
| 1777736031 | 12.78° C | 94% | 1014.2 hPa | 1.27 mm | - | 145 W/m² | - |
| 1777735728 | 12.78° C | 94% | 1014.1 hPa | 1.78 mm | - | 171 W/m² | - |
| 1777735426 | 12.78° C | 95% | 1014.2 hPa | 1.27 mm | - | 203 W/m² | - |
| 1777735123 | 12.78° C | 95% | 1014.1 hPa | 3.05 mm | - | 118 W/m² | - |
| 1777734820 | 12.78° C | 95% | 1014.3 hPa | 1.78 mm | - | 111 W/m² | - |
| 1777734517 | 12.78° C | 95% | 1014.5 hPa | 1.78 mm | - | 118 W/m² | - |
| 1777734214 | 12.78° C | 95% | 1014.5 hPa | 3.05 mm | - | 116 W/m² | - |
| 1777733910 | 12.78° C | 94% | 1014.6 hPa | 3.05 mm | - | 117 W/m² | - |
| 1777733607 | 12.78° C | 94% | 1014.8 hPa | 3.05 mm | - | 97 W/m² | - |
| 1777733303 | 12.78° C | 94% | 1014.6 hPa | 3.05 mm | - | 87 W/m² | - |
| 1777733001 | 12.78° C | 94% | 1014.6 hPa | 3.05 mm | - | 71 W/m² | - |
| 1777732696 | 12.78° C | 93% | 1014.7 hPa | 1.78 mm | - | 56 W/m² | - |
| 1777732393 | 12.78° C | 93% | 1014.5 hPa | 1.78 mm | - | 86 W/m² | - |
| 1777732091 | 12.78° C | 93% | 1014.3 hPa | 1.27 mm | - | 90 W/m² | - |
| 1777731788 | 12.78° C | 93% | 1014.3 hPa | 1.27 mm | - | 91 W/m² | - |
| 1777731485 | 12.78° C | 93% | 1014.2 hPa | 0 mm | - | 91 W/m² | - |
| 1777731183 | 12.78° C | 93% | 1013.9 hPa | 1.78 mm | - | 133 W/m² | - |
| 1777730880 | 12.78° C | 93% | 1013.9 hPa | 1.78 mm | - | 97 W/m² | - |
* Rain latest hour (hover to see other rain measurements)
** Current wind speed in m/s (hover to see current wind gust speed)